[[{"header":{"parameterUnit":"m.s-1","parameterCategory":1,"la1":30.2991,"la2":30.254,"lo1":-89.0895,"lo2":-89.0444,"dy":0.0017,"dx":0.0017,"nx":28,"ny":28,"refTime":"2025-01-08T03:00:00:Z","depth":0,"parameterNumber":2,"parameterNumberName":"U-component_of_WINDS"},"data":[0,0,0,0,0,0,0,0,0,0,0,0,0,0,0,0,0,0,0,0,0,0,0,0,0,0,0,0,0,0,0,0,0,0,0,0,0,0,0,0,0,0,0,0,0,0,0,0,0,0,0,0,0,0,0,0,0,0,0.3582,0.3582,0,0.3555,0.3554,0.3554,0.3574,0.3574,0.3575,0.3576,0.3545,0.3544,0.3542,0,0,0,0,0,0,0,0,0,0,0,0,0,0.365,0.3649,0.3582,0.3582,0.3582,0.3555,0.3554,0.3554,0.3573,0.3575,0.3576,0.3577,0.3546,0.3544,0.3542,0,0,0,0,0,0,0,0,0,0,0,0,0,0.3621,0.3648,0.3582,0.3588,0.3588,0.3555,0.3554,0.3554,0.3573,0.3575,0.3576,0.3577,0.3546,0.3544,0.3542,0.35,0,0,0.3534,0.3533,0,0,0,0,0,0,0,0,0.3623,0.3619,0.3588,0.3588,0.3588,0.3569,0.3567,0.3536,0.3573,0.3579,0.3576,0.3578,0.3552,0.3549,0.3541,0.3499,0.3497,0.3534,0.3532,0.3531,0.3531,0,0,0,0,0,0,0,0.3625,0.362,0.3571,0.3587,0.3587,0.3592,0.3589,0.3561,0.3558,0.3578,0.358,0.3576,0.3552,0.3543,0.354,0.3497,0.3534,0.3532,0.353,0.3529,0.3419,0.3417,0,0,0,0,0,0,0.3627,0.3621,0.3572,0.3571,0.3609,0.3589,0.3586,0.3574,0.3559,0.3558,0.3575,0.3577,0.3547,0.3543,0.3539,0.3489,0.3531,0.3529,0.3528,0.342,0.3419,0.3417,0,0,0,0,0,0,0.3628,0.3622,0.3573,0.3596,0.3591,0.3587,0.3572,0.3572,0.3564,0.3556,0.3556,0.3567,0.3548,0.3543,0.351,0.3488,0.3528,0.3526,0.3422,0.342,0.3418,0.3388,0,0,0,0,0,0,0.363,0.3622,0.3607,0.3596,0.3589,0.3545,0.3571,0.3571,0.356,0.3562,0.3548,0.3547,0.3548,0.3513,0.3507,0.3485,0.3524,0.3424,0.3421,0.3418,0.3391,0.3385,0.338,0,0,0,0,0,0.3632,0.3599,0.3606,0.36,0.357,0.3543,0.3539,0.3542,0.3558,0.3542,0.3537,0.3547,0.3492,0.351,0.3503,0.348,0.3425,0.3422,0.3419,0.3393,0.3386,0.3381,0,0,0,0,0,0,0.3606,0.3598,0.3605,0.3568,0.3556,0.3547,0.3526,0.3535,0.3518,0.3521,0.3525,0.3521,0.3487,0.3481,0.35,0.3439,0.3461,0.3456,0.3444,0.3437,0.3432,0.3433,0.3522,0,0,0,0,0,0.3596,0.3576,0.357,0.3537,0.3531,0.353,0.3519,0.3522,0.351,0.3505,0.3498,0.3485,0.3465,0.3451,0.3432,0.3391,0.3388,0.3372,0.3367,0.3363,0.3358,0.3335,0.3328,0.3406,0.3406,0.3406,0,0,0.3575,0.3568,0.3555,0.3532,0.3523,0.3502,0.3526,0.3502,0.3485,0.3501,0.3469,0.3464,0.345,0.3413,0.3396,0.3406,0.3336,0.3359,0.3355,0.3352,0.3331,0.3323,0.3317,0.3404,0.3404,0.3405,0,0,0.3525,0.3518,0.349,0.3482,0.3469,0.3469,0.3462,0.3452,0.3449,0.3418,0.3429,0.341,0.3375,0.3364,0.3354,0.3302,0.331,0.3296,0.3267,0.3245,0.3239,0.3233,0.3213,0.3206,0.3292,0.3292,0.3292,0,0.35,0.3468,0.3475,0.345,0.3439,0.3454,0.3425,0.3417,0.3398,0.339,0.3403,0.3359,0.3351,0.3311,0.3299,0.3291,0.3282,0.3296,0.3239,0.3234,0.3229,0.3209,0.3202,0.329,0.329,0.329,0.329,0,0.3437,0.3415,0.3394,0.3377,0.3364,0.3337,0.3339,0.3325,0.3331,0.3329,0.3297,0.3288,0.3267,0.3258,0.3263,0.3219,0.3226,0.3239,0.326,0.3219,0.3201,0.3194,0.3287,0.3288,0.3288,0.3289,0,0,0.3367,0.3356,0.3347,0.334,0.3328,0.331,0.3285,0.3266,0.3253,0.3241,0.3218,0.3189,0.3201,0.319,0.3194,0.3175,0.3133,0.319,0.319,0.3178,0.3083,0.3071,0.3063,0.3139,0.3138,0.3137,0.3083,0,0.3316,0.3271,0.3277,0.3234,0.3213,0.3228,0.3205,0.3195,0.3193,0.3175,0.3173,0.3152,0.317,0.3164,0.3146,0.3142,0.3113,0.3146,0.3117,0.3116,0.3118,0.3053,0.3041,0.2991,0.3076,0.3075,0.3074,0,0.3248,0.3234,0.3189,0.3181,0.3172,0.3152,0.3135,0.3118,0.3107,0.3107,0.3095,0.3103,0.3076,0.31,0.3063,0.3086,0.3075,0.3071,0.3069,0.3064,0.3091,0.3045,0.2975,0.2966,0.3064,0.3064,0.3065,0,0.32,0.317,0.3139,0.3132,0.3122,0.3107,0.3102,0.3093,0.3081,0.3066,0.3058,0.3041,0.303,0.3016,0.3018,0.3036,0.298,0.3005,0.2978,0.2978,0.2963,0.2964,0.2888,0.296,0.296,0.296,0.2961,0,0.314,0.3111,0.3117,0.3097,0.3066,0.3073,0.3042,0.3039,0.303,0.301,0.3023,0.3003,0.3009,0.299,0.2992,0.296,0.2956,0.2954,0.2954,0.2951,0.2951,0.2942,0.2945,0.2958,0.2959,0.2959,0.296,0,0.3079,0.3082,0.3049,0.3043,0.304,0.3017,0.3012,0.2993,0.2993,0.2968,0.2962,0.2962,0.294,0.2942,0.2917,0.2919,0.2879,0.2885,0.2882,0.2883,0.2855,0.2857,0.2769,0.2757,0.2839,0.2839,0.2838,0,0.3039,0.3017,0.3009,0.2997,0.2991,0.2972,0.296,0.2967,0.2954,0.2941,0.2924,0.2904,0.2888,0.2852,0.2849,0.283,0.2834,0.2805,0.2831,0.2829,0.2831,0.2832,0.2829,0.2799,0.2798,0.2797,0.2796,0,0.2967,0.297,0.2953,0.2937,0.2923,0.2911,0.2899,0.2889,0.2895,0.288,0.2858,0.2846,0.2821,0.28,0.2783,0.2777,0.2787,0.2789,0.2781,0.2777,0.2775,0.2774,0.2866,0.279,0.2791,0.2791,0.2791,0.2792,0.2914,0.2896,0.2887,0.2868,0.2861,0.285,0.2833,0.2831,0.2814,0.2795,0.28,0.2775,0.2766,0.2743,0.2736,0.2716,0.2727,0.2716,0.2713,0.271,0.2706,0.2781,0.2714,0.2714,0.2714,0.2714,0.2714,0,0.2842,0.2838,0.282,0.2804,0.2789,0.2803,0.2791,0.2777,0.2755,0.2746,0.273,0.2706,0.2686,0.2682,0.2663,0.2648,0.2652,0.2643,0.2643,0.2641,0.2699,0.2706,0.264,0.264,0.264,0.264,0.264,0.264,0.2802,0.2771,0.2773,0.2739,0.2735,0.2711,0.2703,0.2694,0.2686,0.2658,0.2642,0.2641,0.2633,0.2614,0.2596,0.2596,0.2587,0.2576,0.2577,0.263,0.2637,0.2644,0.2651,0.2574,0.2574,0.2521,0.252,0.252]},{"header":{"parameterUnit":"m.s-1","parameterCategory":1,"la1":30.2991,"la2":30.254,"lo1":-89.0895,"lo2":-89.0444,"dy":0.0017,"dx":0.0017,"nx":28,"ny":28,"refTime":"2025-01-08T03:00:00:Z","depth":0,"parameterNumber":3,"parameterNumberName":"V-component_of_WINDS"},"data":[0,0,0,0,0,0,0,0,0,0,0,0,0,0,0,0,0,0,0,0,0,0,0,0,0,0,0,0,0,0,0,0,0,0,0,0,0,0,0,0,0,0,0,0,0,0,0,0,0,0,0,0,0,0,0,0,0,0,-5.6936,-5.6937,0,-5.7006,-5.7007,-5.7008,-5.6951,-5.6949,-5.6946,-5.6944,-5.7011,-5.7015,-5.7019,0,0,0,0,0,0,0,0,0,0,0,0,0,-5.6749,-5.6753,-5.6936,-5.6937,-5.6938,-5.7006,-5.7007,-5.7008,-5.6951,-5.6949,-5.6946,-5.6943,-5.701,-5.7015,-5.702,0,0,0,0,0,0,0,0,0,0,0,0,0,-5.6826,-5.6754,-5.6936,-5.6918,-5.6917,-5.7006,-5.7007,-5.7008,-5.6952,-5.6949,-5.6945,-5.6942,-5.7008,-5.7014,-5.702,-5.7129,0,0,-5.7039,-5.7041,0,0,0,0,0,0,0,0,-5.6822,-5.6833,-5.692,-5.6919,-5.6919,-5.6966,-5.6966,-5.7048,-5.6953,-5.6939,-5.6944,-5.694,-5.6999,-5.7006,-5.7026,-5.7132,-5.7135,-5.7039,-5.7043,-5.7045,-5.7047,0,0,0,0,0,0,0,-5.6816,-5.6829,-5.6963,-5.6921,-5.692,-5.6905,-5.6912,-5.6981,-5.6988,-5.694,-5.6936,-5.6945,-5.6998,-5.7021,-5.7028,-5.7136,-5.7039,-5.7044,-5.7048,-5.705,-5.7334,-5.7338,0,0,0,0,0,0,-5.6813,-5.6825,-5.6961,-5.6966,-5.686,-5.6911,-5.6919,-5.6954,-5.6987,-5.6989,-5.6948,-5.6942,-5.7012,-5.7021,-5.703,-5.716,-5.7045,-5.7051,-5.7054,-5.733,-5.7335,-5.7339,0,0,0,0,0,0,-5.681,-5.6826,-5.6958,-5.6895,-5.691,-5.6918,-5.6959,-5.6958,-5.6981,-5.6993,-5.6994,-5.697,-5.701,-5.7021,-5.7105,-5.7161,-5.7054,-5.7059,-5.7326,-5.7332,-5.7337,-5.742,0,0,0,0,0,0,-5.6804,-5.6825,-5.6867,-5.6896,-5.6914,-5.7034,-5.6962,-5.6962,-5.6992,-5.6985,-5.7015,-5.7016,-5.7008,-5.7096,-5.7111,-5.7167,-5.7064,-5.7321,-5.7329,-5.7335,-5.7412,-5.7428,-5.7441,0,0,0,0,0,-5.6798,-5.6887,-5.687,-5.6887,-5.6967,-5.7038,-5.7048,-5.7038,-5.6996,-5.7038,-5.7047,-5.7015,-5.7152,-5.7105,-5.7121,-5.7181,-5.7317,-5.7326,-5.7335,-5.7406,-5.7425,-5.7441,0,0,0,0,0,0,-5.6863,-5.689,-5.6872,-5.6973,-5.7004,-5.7028,-5.7081,-5.7058,-5.71,-5.7092,-5.7076,-5.7083,-5.7172,-5.7184,-5.7131,-5.7287,-5.7228,-5.724,-5.7276,-5.7295,-5.7309,-5.7304,-5.7069,0,0,0,0,0,-5.6889,-5.6946,-5.6966,-5.7053,-5.7069,-5.7073,-5.7103,-5.7093,-5.7123,-5.7136,-5.715,-5.718,-5.7229,-5.7262,-5.7309,-5.7413,-5.7419,-5.7462,-5.7476,-5.7488,-5.75,-5.7556,-5.7575,-5.7369,-5.7368,-5.7368,0,0,-5.6944,-5.6966,-5.7002,-5.7066,-5.7089,-5.7147,-5.7084,-5.7147,-5.7189,-5.7145,-5.7225,-5.7237,-5.7269,-5.7364,-5.7406,-5.7377,-5.7558,-5.75,-5.7509,-5.7514,-5.7567,-5.7587,-5.7604,-5.7375,-5.7373,-5.7372,0,0,-5.7073,-5.7095,-5.7171,-5.7195,-5.7231,-5.7232,-5.7251,-5.7279,-5.7285,-5.7366,-5.7334,-5.7383,-5.7469,-5.7494,-5.7517,-5.7656,-5.7629,-5.7671,-5.7748,-5.7803,-5.7819,-5.7834,-5.7884,-5.7902,-5.7682,-5.7683,-5.7683,0,-5.7136,-5.7223,-5.7212,-5.7278,-5.7308,-5.7271,-5.7347,-5.737,-5.7419,-5.7439,-5.7406,-5.7514,-5.7533,-5.7633,-5.7667,-5.7687,-5.7707,-5.7668,-5.7818,-5.7833,-5.7846,-5.7893,-5.7912,-5.7688,-5.7687,-5.7687,-5.7686,0,-5.7299,-5.736,-5.7416,-5.7466,-5.7501,-5.7572,-5.757,-5.7607,-5.7594,-5.7599,-5.7681,-5.7703,-5.7753,-5.7776,-5.7763,-5.7875,-5.7856,-5.7821,-5.7761,-5.7871,-5.7915,-5.7933,-5.7695,-5.7693,-5.7692,-5.769,0,0,-5.7471,-5.7515,-5.7536,-5.7558,-5.7595,-5.7641,-5.7709,-5.776,-5.7793,-5.7827,-5.7884,-5.7958,-5.7926,-5.7953,-5.7942,-5.799,-5.81,-5.7949,-5.795,-5.7977,-5.8225,-5.8252,-5.8273,-5.8081,-5.8085,-5.8087,-5.8222,0,-5.7602,-5.7724,-5.7716,-5.783,-5.7886,-5.7852,-5.7912,-5.794,-5.7946,-5.7993,-5.7999,-5.8053,-5.8006,-5.8022,-5.8069,-5.8077,-5.8149,-5.8066,-5.8133,-5.8136,-5.8128,-5.8296,-5.8324,-5.8451,-5.8239,-5.8242,-5.8244,0,-5.7772,-5.7815,-5.7935,-5.7964,-5.7987,-5.8041,-5.8088,-5.8133,-5.8164,-5.8165,-5.8196,-5.8177,-5.8245,-5.8183,-5.8277,-5.8221,-5.8247,-5.8255,-5.826,-5.8266,-5.8198,-5.8307,-5.8491,-5.851,-5.8271,-5.8269,-5.8267,0,-5.7887,-5.7974,-5.8057,-5.8077,-5.8113,-5.8152,-5.8168,-5.8196,-5.8227,-5.8267,-5.8287,-5.8334,-5.8359,-5.8395,-5.8389,-5.8345,-5.8484,-5.8422,-5.8487,-5.8487,-5.8518,-5.8517,-5.8709,-5.8534,-5.8534,-5.8534,-5.8533,0,-5.8035,-5.811,-5.811,-5.8161,-5.8244,-5.8233,-5.8315,-5.8326,-5.8351,-5.8403,-5.8376,-5.8425,-5.8413,-5.8462,-5.8457,-5.8535,-5.8546,-5.8549,-5.8547,-5.8552,-5.8552,-5.857,-5.8561,-5.8539,-5.8538,-5.8537,-5.8536,0,-5.8178,-5.8181,-5.8269,-5.8296,-5.8305,-5.8365,-5.8387,-5.8435,-5.8439,-5.8505,-5.852,-5.8526,-5.8581,-5.8579,-5.8641,-5.8638,-5.8734,-5.8721,-5.8725,-5.8722,-5.8788,-5.8782,-5.8999,-5.9027,-5.8833,-5.8835,-5.8837,0,-5.8273,-5.833,-5.8364,-5.8398,-5.8417,-5.8472,-5.8504,-5.8495,-5.853,-5.857,-5.8613,-5.8666,-5.8709,-5.8799,-5.8808,-5.8855,-5.8844,-5.8917,-5.8851,-5.8854,-5.8846,-5.8843,-5.8849,-5.893,-5.8932,-5.8934,-5.8935,0,-5.8442,-5.844,-5.8489,-5.8539,-5.8578,-5.8616,-5.8651,-5.868,-5.8674,-5.8714,-5.8772,-5.8805,-5.887,-5.8923,-5.8968,-5.8983,-5.8959,-5.8956,-5.8974,-5.898,-5.898,-5.8982,-5.8761,-5.8951,-5.895,-5.8948,-5.8948,-5.8947,-5.8564,-5.8613,-5.8645,-5.87,-5.8726,-5.8759,-5.8806,-5.8817,-5.8865,-5.8918,-5.8909,-5.8974,-5.9003,-5.9062,-5.9081,-5.913,-5.9104,-5.913,-5.9136,-5.9143,-5.9151,-5.8971,-5.9138,-5.9138,-5.9137,-5.9137,-5.9137,0,-5.8732,-5.8751,-5.8802,-5.8852,-5.8895,-5.887,-5.8907,-5.8944,-5.9002,-5.9032,-5.9075,-5.9141,-5.9192,-5.9206,-5.9255,-5.9292,-5.9282,-5.9305,-5.9303,-5.9307,-5.9171,-5.9151,-5.9313,-5.9313,-5.9313,-5.9313,-5.9312,-5.9312,-5.8824,-5.8907,-5.891,-5.9004,-5.9022,-5.9087,-5.911,-5.9141,-5.9165,-5.924,-5.9284,-5.9292,-5.9316,-5.9366,-5.9412,-5.9415,-5.9434,-5.9463,-5.946,-5.9334,-5.9316,-5.9299,-5.9281,-5.9467,-5.9467,-5.9592,-5.9593,-5.9594]}]]